Location: Waco, TX
(31.5480°N, 97.1670°W)
Time: 03:01:45
(UTC-05:00)

ISS - Pass Details

Date: 13 September 2017
Orbit: 401 x 407 km, 51.6° (Epoch: 22 September)

Event Time Altitude Azimuth Distance (km) Brightness Sun altitude
Rises 01:15:44 0° 229° (SW) 2,309 - -54.7°
Reaches altitude 10° 01:17:49 10° 232° (SW) 1,454 - -54.7°
Maximum altitude 01:21:04 68° 316° (NW) 438 - -54.7°
Drops below altitude 10° 01:24:20 10° 40° (NE) 1,465 - -54.8°
Sets 01:26:26 0° 43° (NE) 2,328 - -54.8°
